Location: Codford Saint Peter
(51.1597°N, 2.0531°W)
Time: 02:57:41
(UTC+00:00)

Meteor 1-15 Rocket - Pass Details

Date: 18 September 2020
Orbit: 840 x 906 km, 81.2° (Epoch: 18 October)

Event Time Altitude Azimuth Distance (km) Brightness Sun altitude
Rises 19:51:42 0° 173° (S) 3,397 7.1 -15.6°
Reaches altitude 10° 19:54:09 10° 168° (SSE) 2,472 6.3 -16.0°
Maximum altitude 19:59:32 50° 94° (E) 1,083 4.4 -16.7°
Drops below altitude 10° 20:05:03 10° 21° (NNE) 2,529 6.7 -17.5°
Sets 20:07:34 0° 16° (NNE) 3,482 7.5 -17.9°
